#timestamp,LO_Frequency,Hit,StdDev 
1669093215.8,286047001.2,N
1669093235.6,286046998.8,Y
1669093255.5,286046994.9,P
1669093275.3,286046996.8,N
1669093295.1,286046999.2,N
1669093315.9,286046994.9,N
1669093335.7,286046996.0,N
1669093355.6,286046997.9,N
1669093375.4,286046995.0,N
1669093395.2,286046995.2,N
1669093415.1,286046995.2,N
1669093416.0,286046995.2,N
1669093435.8,286046997.4,N
1669093455.6,286046997.1,N
1669093475.5,286046998.9,N
1669093495.3,286046998.5,N
1669093515.2,286046996.8,N
1669093535.9,286046999.6,N
1669093555.7,286046999.4,N
1669093575.6,286046996.8,N
1669093595.4,286046997.0,N
1669093615.2,286046999.0,N
1669093635.1,286046999.2,N
1669093636.0,286046999.2,N
1669093655.8,286046998.4,N
1669093675.7,286047001.0,N
1669093695.5,286047000.8,N
1669093715.3,286046998.2,N
1669093735.2,286046999.3,N
1669093755.0,286047001.0,N
1669093755.9,286047001.0,N
1669093775.7,286046998.4,N
1669093795.6,286047001.1,N
1669093815.4,286047000.8,N
1669093835.3,286047000.4,N
1669093855.1,286047000.7,N
1669093856.0,286047000.7,N
1669093875.8,286047000.8,N
1669093895.7,286047000.9,N
1669093915.5,286046998.6,N
1669093935.3,286047001.2,N
1669093955.2,286047001.2,N
1669093975.0,286046999.3,N
1669093975.9,286046999.3,N
1669093995.8,286046998.3,N
1669094015.6,286047000.9,N
1669094035.4,286047002.0,N
1669094055.3,286047000.5,N
1669094075.1,286047001.0,N
1669094095.8,286046999.9,N
1669094115.7,286047000.1,N
1669094135.5,286047000.5,N
1669094155.4,286047001.0,N
1669094175.2,286046999.8,N
1669094195.0,286047002.5,N
1669094195.9,286047002.5,N
1669094215.8,286047000.1,N
1669094235.6,286047001.0,N
1669094255.4,286046999.0,N
1669094275.3,286046998.5,N
1669094295.1,286046996.9,N
1669094315.9,286047001.1,N
1669094335.7,286046998.1,N
1669094355.5,286047000.0,N
1669094375.4,286047000.0,N
1669094395.2,286047002.4,N
1669094415.0,286047002.6,N
1669094416.0,286047002.6,N
1669094435.8,286046999.8,N
1669094455.6,286046998.2,N
1669094475.5,286047001.1,N
1669094495.3,286046999.0,N
1669094515.1,286047001.2,N
1669094535.9,286046998.1,N
1669094555.7,286046998.2,N
1669094575.5,286047000.8,N
1669094595.4,286046998.4,N
1669094615.2,286046998.5,N
1669094635.1,286046999.8,N
1669094636.0,286046999.8,N
1669094655.8,286047002.1,N
1669094675.6,286047000.0,N
1669094695.5,286047001.0,N
1669094715.3,286047000.8,N
1669094735.1,286047002.4,N
1669094755.9,286047002.3,N
1669094775.7,286047000.3,N
1669094795.6,286047000.3,N
1669094815.4,286047000.9,N
1669094835.2,286047000.0,N
1669094855.1,286047000.6,N
1669094856.0,286047000.6,N
1669094875.8,286047000.4,N
1669094895.6,286047001.0,N
1669094915.5,286047000.1,N
1669094935.3,286047002.8,N
1669094955.2,286047002.7,N
1669094975.9,286047001.4,N
1669094995.7,286047002.5,N
1669095015.6,286047000.1,N
1669095035.4,286047002.7,N
1669095055.2,286047002.5,N
1669095075.1,286047000.4,N
1669095076.0,286047000.4,N
1669095095.8,286046999.3,N
1669095115.7,286046998.6,N
1669095135.5,286047000.6,N
1669095155.3,286046998.4,N
1669095175.2,286046998.7,N
1669095195.0,286046998.5,N
1669095195.9,286046998.5,N
1669095215.8,286046998.6,N
1669095235.6,286046998.2,N
1669095255.4,286046996.7,N
1669095275.3,286046998.3,N
1669095295.1,286046999.1,N
1669095315.8,286047000.9,N
1669095335.7,286047001.0,N
1669095355.5,286047002.6,N
1669095375.4,286047000.3,N
1669095395.2,286047000.6,N
1669095415.0,286047001.1,N
1669095415.9,286047001.1,N
1669095435.8,286046999.8,N
1669095455.6,286047000.5,N
1669095475.5,286047001.0,N
1669095495.3,286046999.3,N
1669095515.1,286047001.2,N
1669095535.9,286047000.1,N
1669095555.7,286047000.0,N
1669095575.5,286047000.9,N
1669095595.4,286046999.7,N
1669095615.2,286047000.1,N
1669095635.1,286047000.2,N
1669095636.0,286047000.2,N
1669095655.8,286047002.3,N
1669095675.6,286047001.3,N
1669095695.5,286047003.7,N
1669095715.3,286047003.8,N
1669095735.2,286047001.8,N
1669095755.9,286047005.6,Y
1669095775.7,286047003.9,P
1669095795.6,286047003.2,N
1669095815.4,286047004.3,N
1669095835.2,286047003.8,N
1669095855.1,286047004.4,Y
1669095856.0,286047004.4,P
1669095875.8,286047001.2,N
1669095895.7,286047000.7,N
1669095915.5,286047002.3,N
1669095935.3,286047000.9,N
1669095955.2,286047000.7,N
1669095975.0,286046998.3,N
1669095975.9,286046998.3,N
1669095995.8,286047000.6,N
1669096015.6,286046999.9,N
1669096035.4,286046999.9,N
1669096055.3,286046998.7,N
1669096075.1,286046999.2,N
1669096095.8,286046998.3,N
1669096115.7,286046998.5,N
1669096135.5,286046999.1,N
1669096155.3,286046998.6,N
1669096205.2,286046996.7,E
1669096215.1,286046999.0,N
1669096235.9,286047000.6,P
1669096255.7,286047002.7,P
1669096275.5,286047001.9,N
1669096295.4,286047000.3,N
1669096315.2,286046999.7,N
1669096335.1,286047001.5,N
1669096336.0,286047001.5,N
1669096355.8,286047002.1,N
1669096375.6,286047002.7,N
1669096395.5,286046999.7,N
1669096415.3,286046999.7,N
1669096435.1,286047000.4,N
1669096455.9,286047000.7,N
1669096475.7,286047002.3,N
1669096495.6,286047002.4,N
1669096515.4,286047002.6,N
1669096535.2,286047000.1,N
1669096555.1,286047002.3,N
1669096556.0,286047002.3,N
1669096575.8,286047002.3,N
1669096595.6,286047002.7,N
1669096615.5,286047000.9,N
1669096635.3,286046999.7,N
1669096655.2,286047001.7,N
1669096675.9,286047001.3,N
1669096695.7,286047001.8,N
1669096715.6,286047004.1,Y
1669096735.4,286047000.2,P
1669096755.2,286047002.8,P
1669096775.1,286047002.6,N
1669096776.0,286047002.6,N
1669096795.8,286047002.1,N
